Paris / Charles De Gaulle, France

2:49 AM CEST on May 23, 2017 (GMT +0200)
Charles de Gaulle

Weather History for LFPG - June, 2012

Change the Weather History Date:

Thursday, June 28, 2012

  Actual Average Record
Temperature  
Mean Temperature 78 °F -  
Max Temperature 89 °F 74 °F 93 °F (2011)
Min Temperature 66 °F 56 °F 50 °F (2002)
Cooling Degree Days 12    
Growing Degree Days 28 (Base 50)    
Moisture  
Dew Point 63 °F    
Average Humidity 67    
Maximum Humidity 83    
Minimum Humidity 40    
Precipitation  
Precipitation 0.00 in - - ()
Sea Level Pressure  
Sea Level Pressure 29.77 in    
Wind  
Wind Speed 9 mph ()    
Max Wind Speed 17 mph    
Max Gust Speed 30 mph    
Visibility 6.2 miles    
Events Rain , Thunderstorm    
Averages and records for this station are not official NWS values.
T = Trace of Precipitation, MM = Missing Value Source: Averaged Metar Reports

Daily Weather History Graph

Daily Weather History Graph

Search for Another Location

Airport or City:

Trip Planner

Search our weather history database for the weather conditions in past years. The results will help you decide how hot, cold, wet, or windy it might be!

Date:

Astronomy

Jun. 28, 2012 Rise Set
Actual Time 5:48 AM CEST 9:58 PM CEST
Civil Twilight 5:05 AM CEST 10:40 PM CEST
Nautical Twilight 4:04 AM CEST 11:41 PM CEST
Astronomical Twilight 2:25 AM CEST 1:20 AM CEST
Moon 3:57 PM CEST (6/28) 1:33 AM CEST (6/28)
Length of Visible Light 17h 35m
Length of Day
16h 10m
Waxing Gibbous, 64% of the Moon is Illuminated
Jun 28
Waxing Gibbous
Jul 3
Full
Jul 11
Last Quarter
Jul 19
New
Jul 26
First Quarter

Hourly Weather History & Observations

Time (CEST) Temp. Heat Index Dew Point Humidity Pressure Visibility Wind Dir Wind Speed Gust Speed Precip Events Conditions
12:00 AM 69.8 °F - 64.4 °F 83% 29.95 in - ENE 8.1 mph - N/A   Clear
12:30 AM 69.8 °F - 62.6 °F 78% 29.92 in - East 12.7 mph - N/A   Clear
1:00 AM 69.8 °F - 62.6 °F 78% 29.92 in - ESE 9.2 mph - N/A   Clear
1:30 AM 69.8 °F - 62.6 °F 78% 29.92 in - East 10.4 mph - N/A   Clear
2:00 AM 69.8 °F - 62.6 °F 78% 29.92 in - East 9.2 mph - N/A   Clear
2:30 AM 69.8 °F - 60.8 °F 73% 29.92 in - ESE 6.9 mph - N/A   Clear
3:00 AM 68.0 °F - 60.8 °F 78% 29.89 in - East 6.9 mph - N/A   Clear
3:30 AM 68.0 °F - 60.8 °F 78% 29.89 in - East 8.1 mph - N/A   Clear
4:00 AM 68.0 °F - 60.8 °F 78% 29.86 in - East 9.2 mph - N/A   Clear
4:30 AM 66.2 °F - 60.8 °F 83% 29.86 in - East 9.2 mph - N/A   Clear
5:00 AM 66.2 °F - 60.8 °F 83% 29.83 in - East 8.1 mph - N/A   Clear
5:30 AM 66.2 °F - 60.8 °F 83% 29.83 in - ESE 9.2 mph - N/A   Clear
6:00 AM 66.2 °F - 60.8 °F 83% 29.83 in - ESE 8.1 mph - N/A   Clear
6:30 AM 66.2 °F - 60.8 °F 83% 29.80 in - ESE 11.5 mph - N/A   Clear
7:00 AM 66.2 °F - 60.8 °F 83% 29.80 in - ESE 10.4 mph - N/A   Clear
7:30 AM 68.0 °F - 60.8 °F 78% 29.77 in - ESE 12.7 mph - N/A   Clear
8:00 AM 69.8 °F - 62.6 °F 78% 29.77 in - SE 11.5 mph - N/A   Clear
8:30 AM 69.8 °F - 62.6 °F 78% 29.77 in - SE 12.7 mph - N/A   Clear
9:00 AM 71.6 °F - 62.6 °F 73% 29.74 in - SE 10.4 mph - N/A   Clear
9:30 AM 73.4 °F - 62.6 °F 69% 29.74 in - ESE 11.5 mph - N/A   Clear
10:00 AM 73.4 °F - 64.4 °F 73% 29.77 in - SSE 10.4 mph - N/A   Clear
10:30 AM 75.2 °F - 62.6 °F 65% 29.74 in - SSE 12.7 mph - N/A   Clear
11:00 AM 73.4 °F - 64.4 °F 73% 29.74 in 6.2 mi SSE 11.5 mph - N/A Rain Light Rain
11:30 AM 73.4 °F - 64.4 °F 73% 29.74 in 6.2 mi SSE 11.5 mph - N/A   Mostly Cloudy
12:00 PM 75.2 °F - 64.4 °F 69% 29.71 in - SE 11.5 mph - N/A   Clear
12:30 PM 78.8 °F - 66.2 °F 65% 29.71 in 6.2 mi SSE 12.7 mph - N/A   Scattered Clouds
1:00 PM 78.8 °F - 66.2 °F 65% 29.71 in - South 12.7 mph 29.9 mph N/A   Clear
1:30 PM 80.6 °F 82.7 °F 66.2 °F 61% 29.71 in - South 11.5 mph - N/A   Clear
2:00 PM 84.2 °F 85.6 °F 64.4 °F 51% 29.71 in - Variable 11.5 mph 23.0 mph N/A   Clear
2:30 PM 84.2 °F 86.6 °F 66.2 °F 55% 29.68 in - SSE 12.7 mph - N/A   Clear
3:00 PM 86.0 °F 87.3 °F 64.4 °F 48% 29.68 in - South 11.5 mph - N/A   Clear
3:30 PM 87.8 °F 89.4 °F 64.4 °F 46% 29.68 in - South 15.0 mph - N/A   Clear
4:00 PM 87.8 °F 89.4 °F 64.4 °F 46% 29.68 in - South 16.1 mph - N/A   Clear
4:30 PM 87.8 °F 88.5 °F 62.6 °F 43% 29.68 in - SSW 15.0 mph - N/A   Clear
5:00 PM 89.6 °F 90.1 °F 62.6 °F 40% 29.68 in - SSW 17.3 mph - N/A   Clear
5:30 PM 87.8 °F 88.5 °F 62.6 °F 43% 29.68 in - SSW 16.1 mph - N/A   Clear
6:00 PM 87.8 °F 87.6 °F 60.8 °F 40% 29.68 in 6.2 mi SW 15.0 mph - N/A   Scattered Clouds
6:30 PM 87.8 °F 88.5 °F 62.6 °F 43% 29.68 in 6.2 mi SW 16.1 mph - N/A   Mostly Cloudy
7:00 PM 86.0 °F 86.6 °F 62.6 °F 45% 29.68 in 6.2 mi SW 12.7 mph - N/A Thunderstorm Mostly Cloudy
7:30 PM 80.6 °F 82.7 °F 66.2 °F 61% 29.71 in 6.2 mi NNW 9.2 mph - N/A Thunderstorm Mostly Cloudy
8:00 PM 80.6 °F 82.3 °F 64.4 °F 58% 29.71 in 6.2 mi North 3.5 mph - N/A   Mostly Cloudy
8:30 PM 78.8 °F - 66.2 °F 65% 29.71 in 6.2 mi NNE 4.6 mph - N/A   Mostly Cloudy
9:00 PM 78.8 °F - 64.4 °F 61% 29.71 in 6.2 mi North 3.5 mph - N/A   Mostly Cloudy
9:30 PM 77.0 °F - 64.4 °F 65% 29.71 in 6.2 mi NNE 3.5 mph - N/A   Scattered Clouds
10:00 PM 77.0 °F - 64.4 °F 65% 29.74 in - WNW 1.2 mph - N/A   Clear
10:30 PM 75.2 °F - 64.4 °F 69% 29.74 in - Calm Calm - N/A   Clear
11:00 PM 75.2 °F - 64.4 °F 69% 29.74 in - Variable 2.3 mph - N/A   Clear
11:30 PM 75.2 °F - 66.2 °F 73% 29.74 in - WSW 2.3 mph - N/A   Clear